EHI
0 0 0 0 6 22 32 25 15 7 4 12 26 38 41 32 16 5 1 0 0 0 0 0 0 0 0 0 0 0 0 0 0 0 0 0 0 0 0 0 0 0 0
0 0 0 0 3 11 16 13 8 4 2 5 12 19 21 16 8 2 0 0 0 0 0 0 0 0 0 0 0 0 0 0 0 0 0 0 0 0 0 0 0 0 0
0 0 0 0 0 1 2 2 1 1 0 0 1 3 4 3 1 0 0 0 0 0 0 0 0 0 0 0 0 0 0 0 0 0 0 0 0 0 0 0 0 0 0
0 0 0 0 0 0 0 0 0 0 0 0 0 0 0 0 0 0 0 0 0 0 0 0 0 0 0 0 0 0 0 0 0 0 0 0 0 0 0 0 0 0 0
0 0 0 0 0 1 1 0 0 0 0 0 0 0 0 0 0 0 0 0 0 0 0 0 0 0 0 0 0 0 0 0 0 0 0 0 0 0 0 0 0 0 0
0 0 0 0 3 5 6 5 4 3 1 0 0 0 0 0 0 0 0 0 0 0 0 0 0 0 0 0 0 0 0 0 0 0 0 0 0 0 0 0 0 0 0
0 0 0 1 7 16 20 20 18 15 9 3 1 0 0 0 0 0 0 0 0 0 0 0 0 0 0 0 0 0 0 0 0 0 0 0 0 0 0 0 0 0 0
0 0 0 1 10 25 35 37 36 33 23 11 4 2 0 0 0 0 0 0 0 0 0 0 0 0 0 0 0 0 0 0 0 0 0 0 0 0 0 0 0 0 0
0 0 0 1 8 22 35 40 41 38 28 16 8 3 1 0 0 0 0 0 0 0 0 0 0 0 0 0 0 0 0 0 0 0 0 0 0 0 0 0 0 0 0
0 0 0 1 4 10 19 27 30 27 22 14 7 2 0 0 0 0 0 0 0 0 0 0 0 0 0 0 0 0 0 0 0 0 0 0 0 0 0 0 0 0 0
0 0 1 2 3 2 5 10 12 12 11 7 3 0 0 0 0 0 0 0 0 0 0 0 0 0 0 0 0 0 0 0 0 0 0 0 0 0 0 0 0 0 0
0 0 0 1 1 1 0 1 2 3 3 2 0 0 0 0 0 0 0 0 0 0 0 0 0 0 0 0 0 0 0 0 0 0 0 0 0 0 0 0 0 0 0
0 0 0 0 0 0 0 0 0 0 0 0 0 0 0 0 0 0 0 0 0 0 0 0 0 0 0 0 0 0 0 0 0 0 0 0 0 0 0 0 0 0 1
0 0 0 0 0 0 0 0 0 0 0 0 0 0 0 0 0 0 0 0 0 0 0 0 0 0 0 0 0 0 0 0 0 0 0 0 0 0 2 3 3 3 3
0 0 0 0 1 0 0 0 0 0 0 0 0 0 0 0 0 0 0 0 0 0 0 0 0 0 0 0 0 0 0 0 0 0 0 0 0 1 3 6 7 8 10
0 0 0 0 0 0 0 0 0 0 0 0 0 0 0 0 0 0 0 0 0 0 0 0 0 0 0 0 0 0 0 0 0 0 0 0 0 0 2 4 7 10 13
1 1 0 0 0 0 0 0 0 0 0 0 0 0 0 0 0 0 0 0 0 0 0 0 0 0 0 0 0 0 0 0 0 0 0 0 0 0 0 1 3 5 7
3 3 1 0 0 0 0 0 0 0 0 0 0 0 0 0 0 0 0 0 0 0 0 0 0 0 0 0 0 0 0 0 0 0 0 0 0 0 0 0 0 1 1
3 2 1 0 0 0 0 0 0 0 0 0 0 0 0 0 0 0 0 0 0 0 0 0 0 0 0 0 0 0 0 0 0 0 0 0 0 0 0 0 0 0 0
1 1 0 0 0 0 0 0 0 0 0 0 0 0 0 0 0 0 0 0 0 0 0 0 0 0 0 0 0 0 0 0 0 0 0 0 0 0 0 0 0 0 0
0 0 0 0 0 0 0 0 0 0 0 0 0 0 0 0 0 0 0 0 0 0 0 0 0 0 0 0 0 0 0 0 0 0 0 0 0 0 0 0 0 0 0
0 0 0 0 0 0 0 0 0 0 0 0 0 0 0 0 0 0 0 0 0 0 0 0 0 0 0 0 0 0 0 0 0 0 0 0 0 0 0 0 0 0 0
0 0 0 0 0 0 0 0 0 0 0 0 0 0 0 0 0 0 0 0 0 0 0 0 0 0 0 0 0 0 0 0 0 0 0 0 0 0 0 0 0 0 0
0 0 0 0 0 0 0 0 0 0 0 0 0 0 0 0 0 0 0 0 0 0 0 0 0 0 0 0 0 0 0 0 0 0 0 0 0 0 0 0 0 0 0
0 0 0 0 0 0 0 0 0 0 0 0 0 0 0 0 0 0 0 0 0 0 0 0 0 0 0 0 0 0 0 0 0 0 0 0 0 0 0 0 0 0 0
0 0 0 0 0 0 0 0 0 0 0 0 0 0 0 0 0 0 0 0 0 0 0 0 0 0 0 0 0 0 0 0 0 0 0 0 0 0 0 0 0 0 0
Wind_Speed
4 5 8 9 10 10 13 14 14 14 13 13 12 12 11 10 9 9 8 7 7 7 7 7 6 6 6 6 6 6 5 5 5 6 8 9 9 9 9 9 9 7 10
7 6 9 9 10 10 11 12 13 13 12 12 11 10 10 9 9 8 7 7 6 6 6 5 4 4 4 5 5 5 5 4 3 1 4 6 7 7 7 8 9 6 10
8 6 7 9 10 10 10 11 12 12 11 10 10 9 8 7 7 7 7 6 6 6 6 4 4 3 4 5 5 4 4 3 3 3 2 1 3 6 6 6 8 8 10
8 6 6 9 9 10 9 10 10 11 11 10 9 8 7 6 5 5 5 6 6 6 5 4 2 2 3 4 4 4 4 4 3 3 1 2 2 5 5 5 7 9 9
7 5 6 10 10 10 10 10 9 10 9 9 8 7 6 5 3 3 4 4 4 3 3 2 2 3 4 5 5 5 5 4 4 4 3 2 0 3 4 3 5 8 10
7 5 7 10 10 10 10 10 10 9 8 7 6 5 4 3 2 1 1 2 2 1 0 1 3 4 4 5 5 5 5 4 3 3 3 3 3 3 3 1 1 5 8
6 5 6 10 10 10 11 11 10 9 8 7 6 5 4 3 1 0 1 1 1 1 1 2 4 4 5 6 6 6 6 4 3 3 2 2 2 4 3 2 2 0 3
7 6 6 10 11 11 11 10 10 9 8 7 6 5 4 3 1 1 1 2 1 0 1 2 3 3 4 5 6 7 7 5 3 2 2 1 0 1 1 1 1 0 0
7 6 5 5 7 10 10 9 9 8 8 7 6 5 4 3 2 2 2 1 1 1 1 1 2 3 4 6 7 8 8 7 4 2 1 1 2 2 3 3 3 3 2
5 5 5 5 5 5 6 10 10 9 8 7 6 5 4 2 2 2 1 2 2 1 1 2 3 4 5 6 7 7 7 6 3 3 2 2 5 5 5 5 6 5 5
6 4 5 5 5 5 5 7 8 8 7 6 5 5 3 0 1 2 2 2 3 3 3 3 4 5 6 6 7 8 6 2 2 2 2 5 7 7 8 7 7 7 6
9 8 6 6 5 5 4 3 3 3 3 2 2 1 1 1 1 2 4 4 4 4 4 5 6 6 5 3 5 6 2 3 2 2 3 8 9 9 9 9 9 9 8
8 7 7 6 5 4 3 3 2 2 2 2 2 1 1 1 1 2 2 3 4 5 4 5 5 3 3 3 3 3 3 2 1 2 3 8 8 10 11 10 9 10 9
6 6 5 4 4 4 3 2 2 2 1 1 1 1 1 0 0 1 1 1 1 1 2 2 2 3 4 4 3 3 3 2 2 2 4 10 10 10 9 10 9 9 9
5 4 4 4 4 3 3 2 2 2 1 2 2 1 0 1 0 0 0 1 1 0 1 1 2 2 3 3 3 3 4 4 4 4 4 10 13 12 12 11 11 11 11
5 4 4 4 3 3 2 2 2 2 3 3 3 3 2 1 1 2 1 1 2 1 1 1 1 2 2 2 3 4 4 4 4 4 4 6 11 12 13 13 13 13 13
5 4 5 5 5 5 4 4 4 4 4 4 4 5 5 4 4 3 3 3 3 2 3 2 3 3 2 2 3 3 2 3 3 3 4 4 5 9 13 13 14 14 13
5 5 5 6 7 7 6 6 5 6 6 5 4 5 6 6 5 4 4 3 3 3 2 2 2 2 2 3 2 2 2 2 2 2 3 3 3 4 7 13 14 14 14
7 7 7 7 8 8 8 8 7 7 7 5 5 5 6 7 6 5 4 3 3 3 3 2 3 2 2 3 3 2 1 2 1 1 2 3 3 3 4 8 12 13 14
8 8 8 8 8 8 7 7 7 8 6 6 6 6 7 6 7 5 4 5 4 4 3 3 2 2 1 2 4 4 3 3 2 1 1 2 3 4 5 5 5 7 12
8 8 7 8 6 5 4 4 5 5 4 5 6 7 7 7 7 6 5 5 4 4 3 3 2 2 2 2 3 4 3 3 2 1 1 3 4 5 5 5 5 5 5
9 8 8 8 6 5 4 4 4 5 5 4 4 6 7 7 6 6 5 4 4 3 4 4 3 2 2 2 2 3 4 3 2 2 3 3 4 5 6 8 8 8 6
9 8 9 8 8 8 7 6 5 4 4 4 4 4 6 6 6 5 5 4 4 3 2 2 2 2 2 2 1 2 3 4 4 3 3 4 5 6 7 8 9 9 9
9 9 10 10 9 8 7 8 7 5 3 2 2 2 4 5 5 5 5 4 3 2 2 3 2 1 1 2 2 2 3 3 4 5 3 4 7 8 9 9 10 10 11
9 9 9 10 9 8 8 7 8 6 4 2 2 3 3 3 4 4 4 4 3 2 3 3 3 2 1 1 2 2 3 3 4 6 8 7 7 8 9 10 9 9 10
9 9 9 10 9 7 8 7 7 7 5 4 2 2 2 2 2 4 3 3 3 2 3 3 2 2 2 2 2 2 3 4 5 6 8 10 10 10 10 9 9 9 8
Wind_Direction
151 149 158 156 154 139 130 128 126 125 122 118 114 109 107 105 106 108 112 117 123 125 126 125 121 115 112 108 103 97 93 97 116 129 138 144 151 156 162 160 150 147 151
141 142 151 153 154 142 132 129 128 127 126 124 122 118 115 114 115 117 120 122 124 128 127 119 107 93 81 77 76 75 72 61 53 111 164 163 166 169 178 180 169 163 164
128 129 140 148 152 146 136 130 129 128 127 125 124 121 117 115 117 122 128 131 131 131 130 125 112 90 66 57 55 50 43 32 11 337 280 243 200 181 176 178 174 176 176
120 114 131 145 149 145 136 131 131 130 129 127 127 126 125 123 122 128 139 142 142 142 143 140 119 76 47 31 24 20 12 2 347 344 344 278 231 198 181 180 187 192 192
111 113 140 143 145 143 137 133 133 132 130 129 130 130 130 133 132 142 155 155 156 158 160 151 97 51 31 18 14 13 7 353 352 20 32 32 99 185 171 180 203 202 203
118 125 142 141 141 140 139 138 138 137 135 132 130 128 125 124 121 161 189 179 181 208 268 38 54 50 36 23 18 16 9 358 33 54 54 46 45 87 104 98 205 212 212
128 130 140 140 141 143 146 147 148 146 141 134 129 124 121 118 113 88 267 250 248 293 5 36 52 43 31 21 15 12 9 20 78 91 89 66 41 45 67 56 37 119 213
137 134 139 147 147 149 153 153 152 150 147 141 137 134 134 136 145 240 257 255 254 330 48 61 45 28 26 24 20 15 11 19 78 112 131 133 261 356 99 93 48 20 166
136 135 135 145 150 154 153 151 151 151 152 152 152 153 157 171 205 238 247 240 199 138 85 27 3 4 18 24 24 22 19 32 47 14 326 303 274 266 240 214 207 203 194
134 138 141 142 144 147 154 159 160 161 163 168 171 174 180 196 227 248 244 246 245 261 295 320 336 351 5 14 17 17 28 43 31 6 345 308 291 275 260 241 229 219 211
151 153 155 156 154 153 157 168 166 170 175 176 182 193 178 93 4 342 316 281 283 295 306 316 327 337 352 3 2 7 24 14 344 311 297 289 286 273 265 254 247 241 236
175 178 174 169 166 160 160 143 140 140 146 145 139 138 112 98 351 343 342 329 322 325 330 335 337 346 360 356 350 0 3 337 318 298 289 289 281 272 265 258 253 253 251
180 179 179 173 160 152 140 132 127 116 121 126 130 124 99 60 11 10 13 5 9 8 9 359 359 357 348 339 337 341 341 339 321 306 303 311 298 283 274 267 260 260 260
179 184 171 154 150 155 140 135 135 125 123 118 99 97 112 81 350 3 14 10 19 11 343 341 338 338 341 341 338 340 351 360 358 347 340 350 349 335 310 291 281 276 274
185 175 155 136 144 141 130 118 116 115 96 73 51 31 134 203 248 71 46 34 8 353 319 321 339 350 355 357 4 14 19 18 17 17 3 5 4 359 349 336 320 306 296
181 161 119 111 115 114 111 109 94 85 78 69 54 37 48 82 101 99 81 59 47 55 84 95 82 64 37 19 14 19 30 29 26 25 20 11 9 6 1 353 343 331 316
161 130 109 106 92 93 90 86 82 81 83 75 64 56 65 75 85 88 79 60 45 51 68 69 66 67 51 24 6 10 38 30 26 29 28 22 10 9 4 357 350 343 333
125 102 93 99 92 89 88 86 84 83 85 78 68 62 63 67 71 73 70 57 44 49 53 62 48 54 35 11 340 332 6 359 3 20 37 38 23 7 355 349 342 338 334
112 106 95 95 96 95 93 89 84 80 76 70 63 58 55 57 60 68 63 48 42 45 34 37 43 48 26 351 316 295 314 299 287 1 47 44 11 343 330 331 330 327 323
99 100 100 98 101 103 98 92 85 74 65 60 58 53 52 52 53 57 59 46 47 52 38 31 41 41 19 330 316 310 285 267 237 203 54 1 325 318 313 309 309 311 314
93 97 98 103 104 106 98 92 87 77 65 59 57 52 50 51 54 53 52 46 46 52 43 31 24 18 0 341 335 314 287 272 250 200 345 322 312 313 310 306 301 300 300
101 93 87 84 80 73 79 85 90 96 81 70 56 47 43 47 47 56 52 46 38 40 34 24 22 4 340 4 352 314 319 318 320 316 315 305 315 317 313 310 304 296 293
95 93 93 86 81 76 81 88 86 72 60 44 36 37 33 45 50 49 45 42 30 27 15 357 6 1 317 314 325 294 303 296 309 288 290 303 311 310 304 303 298 295 295
103 100 97 92 86 82 85 92 92 93 87 64 46 39 32 37 40 41 39 34 25 12 358 337 13 344 320 308 314 294 265 277 291 301 288 290 296 297 296 296 297 294 291
114 106 99 94 87 85 88 95 99 99 104 100 66 51 35 20 24 27 30 19 5 350 340 335 342 343 332 299 296 301 295 286 254 277 294 296 293 288 292 290 288 287 286
115 107 104 100 91 88 92 96 109 117 120 111 83 58 25 356 352 3 9 4 348 338 331 328 334 339 335 312 300 287 283 286 289 283 290 296 295 294 291 287 284 282 280